Location: Molino di Ancona
(43.6167°N, 13.3667°E)
Time: 11:05:15
(UTC+00:00)

ADEOS Rocket - Pass Details

Date: 15 December 2019
Orbit: 859 x 1307 km, 98.7° (Epoch: 24 January)

Event Time Altitude Azimuth Distance (km) Brightness Sun altitude
Rises 05:49:52 0° 173° (S) 4,036 6.7 -7.6°
Reaches altitude 10° 05:52:36 10° 176° (S) 3,017 6.0 -7.2°
Maximum altitude 05:59:22 65° 258° (WSW) 1,149 3.2 -6.1°
Drops below altitude 10° 06:05:29 10° 340° (NNW) 2,728 4.9 -5.1°
Sets 06:07:51 0° 344° (NNW) 3,626 5.6 -4.7°
